Location: Marysville Observatory
(48.1092°N, 122.1645°W)
Time: 17:05:34
(UTC-07:00)

Amateur Radio Satellites - All Passes

Search period start: 30 May 2016 16:35
Search period end: 31 May 2016 16:35
Location: Marysville Observatory, 48.1092°N, 122.1645°W

Satellite Date Start Highest point End Downlink Frequencies (MHz)
Time Altitude Azimuth
YUBILEINY 30 May 16:37:18 16:45:59 81° 97° (E) 16:54:43 435.215
KKS-1 30 May 16:54:13 16:58:38 62° 102° (ESE) 17:03:00 437.445
BEESAT 30 May 16:54:16 16:58:07 24° 298° (WNW) 17:01:56 436.000
NOAA 18 30 May 16:55:12 16:59:13 21° 57° (ENE) 17:03:14 137.9125
ITAMSAT 1 30 May 16:58:18 16:59:02 10° 275° (W) 16:59:47 435.822/435.867
CUTE-I 30 May 17:14:12 17:18:21 24° 59° (ENE) 17:22:29 437.470
RS-15 30 May 17:14:56 17:25:54 57° 115° (ESE) 17:37:27 29.354- 29.394
STARS 30 May 17:20:39 17:25:00 61° 102° (ESE) 17:29:19 437.465
HORYU 2 30 May 17:22:17 17:26:35 53° 259° (W) 17:30:57 437.375
BRITE-PL 30 May 17:23:25 17:28:20 31° 64° (ENE) 17:33:11 437.365/2234.400
PCSat 30 May 17:24:37 17:29:42 38° 44° (NE) 17:34:46 145.827
Cosmos 2504 30 May 17:26:16 17:33:14 50° 89° (E) 17:40:38 435.465 / 435.565
GOMX 1 30 May 17:31:58 17:35:42 19° 60° (ENE) 17:39:20 467.674
CUBESAT XI-V 30 May 17:32:45 17:35:55 18° 90° (E) 17:39:02 437.345
MOZHAYETS 4 30 May 17:34:15 17:38:52 69° 287° (WNW) 17:43:29
BEESAT 2 30 May 17:41:54 17:43:19 12° 23° (NNE) 17:44:44 435.950
NOAA 15 30 May 17:50:16 17:55:30 61° 70° (ENE) 18:00:45 137.62
HO-68 30 May 18:02:04 18:06:12 17° 45° (NE) 18:10:19 435.675
DOVE 4 30 May 18:03:55 18:07:13 18° 60° (ENE) 18:10:25 437.250
Cubesat XI-IV 30 May 18:07:34 18:12:46 59° 70° (ENE) 18:18:02 437.490
BEESAT 3 30 May 18:09:01 18:12:02 20° 35° (NE) 18:15:02 437.485
LilacSat-2 30 May 18:17:54 18:21:38 60° 74° (ENE) 18:25:23 437.200
AO-7 30 May 18:18:45 18:22:07 13° 277° (W) 18:25:31 29.400- 29.500
O/OREOS (USA 219) 30 May 18:21:51 18:26:08 42° 57° (ENE) 18:30:23 437.305
AUBIESAT-1 30 May 18:28:50 18:29:49 11° 54° (NE) 18:30:48 437.475
KKS-1 30 May 18:31:49 18:34:46 18° 300° (WNW) 18:37:41 437.445
NOAA 18 30 May 18:33:56 18:39:22 71° 256° (WSW) 18:44:50 137.9125
YUBILEINY 30 May 18:36:49 18:43:52 27° 300° (WNW) 18:51:01 435.215
M-CUBED/EXP-1 PRIME 30 May 18:37:07 18:39:30 16° 57° (ENE) 18:41:48 437.505
CANX-2 30 May 18:46:19 18:48:04 12° 58° (ENE) 18:49:49 2200.000
CUTE-I 30 May 18:52:45 18:57:59 61° 259° (WSW) 19:03:16 437.470
STARS 30 May 18:58:03 19:00:55 17° 300° (WNW) 19:03:48 437.465
BRITE-PL 30 May 19:01:02 19:06:33 50° 262° (W) 19:12:03 437.365/2234.400
GOMX 1 30 May 19:07:46 19:13:14 78° 256° (WSW) 19:18:32 467.674
PCSat 30 May 19:08:03 19:13:12 44° 245° (WSW) 19:18:17 145.827
CUBESAT XI-V 30 May 19:09:02 19:13:43 62° 288° (WNW) 19:18:20 437.345
CUTE 1.7 + AOD 2 30 May 19:11:28 19:14:25 19° 62° (ENE) 19:17:22 437.475
MOZHAYETS 4 30 May 19:14:12 19:15:12 11° 306° (NW) 19:16:10
BEESAT 2 30 May 19:18:23 19:22:12 41° 45° (NE) 19:26:00 435.950
Cosmos 2504 30 May 19:20:06 19:26:51 38° 293° (WNW) 19:34:03 435.465 / 435.565
COMPASS 1 30 May 19:21:13 19:23:11 13° 59° (ENE) 19:25:09 437.405
AAUSAT CUBESAT 2 30 May 19:21:20 19:22:18 11° 57° (ENE) 19:23:17 437.432
RS-15 30 May 19:27:07 19:38:30 59° 322° (NW) 19:50:32 29.354- 29.394
NOAA 15 30 May 19:31:39 19:35:41 22° 269° (W) 19:39:44 137.62
DOVE 4 30 May 19:39:15 19:44:25 77° 257° (WSW) 19:49:20 437.250
CINEMA 3 30 May 19:44:47 19:49:08 42° 70° (ENE) 19:53:19 145.822/145.860
HO-68 30 May 19:45:35 19:52:35 63° 67° (ENE) 19:59:39 435.675
BEESAT 3 30 May 19:46:12 19:50:09 71° 236° (SW) 19:54:04 437.485
Cubesat XI-IV 30 May 19:49:11 19:53:15 22° 269° (W) 19:57:21 437.490
LilacSat-2 30 May 19:54:43 19:56:21 12° 271° (W) 19:57:57 437.200
AUBIESAT-1 30 May 19:59:53 20:03:51 90° 245° (WSW) 20:07:33 437.475
O/OREOS (USA 219) 30 May 20:01:41 20:05:19 25° 256° (WSW) 20:08:56 437.305
M-CUBED/EXP-1 PRIME 30 May 20:09:49 20:13:47 57° 253° (WSW) 20:17:28 437.505
CUBEBUG 2 30 May 20:11:10 20:14:44 26° 66° (ENE) 20:18:15 437.445
SEEDS 30 May 20:14:38 20:18:43 56° 73° (ENE) 20:22:52 437.485
STRAND 1 30 May 20:14:43 20:19:46 52° 100° (E) 20:24:47 437.568
CANX-2 30 May 20:19:04 20:23:17 86° 259° (W) 20:27:33 2200.000
AIST 2 30 May 20:19:42 20:22:48 20° 33° (NNE) 20:25:53 435.215
NOAA 18 30 May 20:19:48 20:21:00 11° 275° (W) 20:22:13 137.9125
FUNcube-1 30 May 20:26:58 20:29:47 18° 62° (ENE) 20:32:35 145.935
CUSAT 1 30 May 20:29:32 20:33:37 15° 46° (NE) 20:37:24 437.405
UWE-3 30 May 20:32:01 20:35:41 29° 67° (ENE) 20:39:18 435.000/436.395/437.385
GONETS M04 30 May 20:35:02 20:41:19 23° 77° (ENE) 20:47:35
CUTE 1.7 + AOD 2 30 May 20:45:48 20:49:54 52° 260° (W) 20:54:04 437.475
PRISM 30 May 20:48:57 20:52:09 21° 93° (E) 20:55:19 437.425
GOMX 1 30 May 20:49:58 20:52:04 12° 275° (W) 20:54:10 467.674
AAUSAT CUBESAT 2 30 May 20:52:56 20:57:05 83° 74° (ENE) 21:01:16 437.432
COMPASS 1 30 May 20:54:01 20:58:10 78° 257° (WSW) 21:02:23 437.405
DELFI C3 30 May 20:54:39 20:57:28 19° 63° (ENE) 21:00:19 145.870
DANDE 30 May 20:55:12 20:59:38 15° 46° (NE) 21:03:56 436.750
BEESAT 2 30 May 20:56:34 20:59:54 25° 244° (WSW) 21:03:12 435.950
Oscar 11 30 May 21:04:03 21:08:10 47° 70° (ENE) 21:12:20 145.826/435.025
HUMSAT D 30 May 21:04:52 21:06:37 13° 59° (ENE) 21:08:22 437.325/437.525
AIST 1 30 May 21:13:09 21:17:29 59° 95° (E) 21:21:50
ISS 30 May 21:18:04 21:21:10 43° 148° (SSE) 21:24:18 145.825
DOVE 4 30 May 21:21:36 21:22:50 11° 275° (W) 21:24:01 437.250
CINEMA 3 30 May 21:22:42 21:26:25 24° 267° (W) 21:30:02 145.822/145.860
ZACube-1 30 May 21:25:24 21:29:34 69° 73° (ENE) 21:33:42 437.345
HO-68 30 May 21:34:39 21:40:46 30° 267° (W) 21:46:56 435.675
RS-15 30 May 21:43:24 21:54:07 36° 354° (N) 22:05:12 29.354- 29.394
CUBEBUG 2 30 May 21:47:19 21:51:16 34° 263° (W) 21:55:08 437.445
Cosmos 2499 30 May 21:50:32 21:57:07 36° 84° (E) 22:04:08 435.465 / 435.565
SEEDS 30 May 21:52:13 21:54:48 16° 270° (W) 21:57:25 437.485
STRAND 1 30 May 21:54:27 21:58:38 26° 299° (WNW) 22:02:50 437.568
AIST 2 30 May 21:57:38 22:01:48 81° 234° (SW) 22:05:57 435.215
FUNcube-1 30 May 22:01:36 22:05:42 52° 260° (W) 22:09:46 145.935
UWE-3 30 May 22:08:23 22:12:08 30° 264° (W) 22:15:50 435.000/436.395/437.385
PHONESAT 2.4 30 May 22:10:11 22:12:15 16° 167° (SSE) 22:14:19 2401.200-2431.200
CUSAT 1 30 May 22:10:11 22:17:50 55° 71° (ENE) 22:24:07 437.405
PRISM 30 May 22:23:42 22:27:39 42° 291° (WNW) 22:31:34 437.425
AISAT 30 May 22:25:40 22:28:14 15° 58° (ENE) 22:30:48 437.250
GONETS M04 30 May 22:28:10 22:36:59 88° 280° (W) 22:45:47
DELFI C3 30 May 22:28:13 22:32:02 45° 261° (W) 22:35:55 145.870
AAUSAT CUBESAT 2 30 May 22:32:20 22:33:10 10° 274° (W) 22:34:00 437.432
DANDE 30 May 22:36:33 22:44:45 51° 69° (ENE) 22:52:08 436.750
HUMSAT D 30 May 22:37:36 22:41:40 79° 258° (WSW) 22:45:46 437.325/437.525
Oscar 11 30 May 22:41:27 22:44:34 19° 269° (W) 22:47:43 145.826/435.025
AIST 1 30 May 22:52:40 22:55:30 17° 294° (WNW) 22:58:22
UNISAT 6 30 May 22:53:52 22:57:34 27° 95° (E) 23:01:17 437.425
ISS 30 May 22:54:23 22:57:36 54° 347° (NNW) 23:00:49 145.825
TIGRISAT 30 May 23:00:04 23:03:51 29° 96° (E) 23:07:40 435.000
ZACube-1 30 May 23:04:28 23:06:20 13° 271° (W) 23:08:13 437.345
DX 1 30 May 23:05:42 23:09:25 27° 65° (ENE) 23:13:09 434.975-435.025
CUBEBUG 1 30 May 23:06:46 23:10:43 33° 67° (ENE) 23:14:42 437.445
ESTCUBE 1 30 May 23:16:49 23:21:15 56° 71° (ENE) 23:25:44 437.505/2401.250
SPROUT 30 May 23:17:53 23:20:49 18° 61° (ENE) 23:23:46 437.525
VELOX 1 30 May 23:23:17 23:27:33 46° 69° (ENE) 23:31:50 145.980
QB50P1 30 May 23:30:30 23:32:23 13° 88° (E) 23:34:14 145.935-145.965
POPSAT HIP 1 30 May 23:30:33 23:32:20 12° 88° (E) 23:34:07 437.405
QB50P2 30 May 23:33:46 23:36:06 14° 89° (E) 23:38:28 145.880/145.840
ANTELSAT 30 May 23:34:34 23:38:53 68° 102° (ESE) 23:43:15 437.575/2403.000
POLYITAN 1 30 May 23:36:12 23:38:36 15° 90° (E) 23:40:59 437.675
AIST 2 30 May 23:39:05 23:39:33 10° 252° (WSW) 23:40:03 435.215
Cosmos 2499 30 May 23:42:42 23:49:54 53° 287° (WNW) 23:57:45 435.465 / 435.565
50 SAT 30 May 23:44:30 23:48:08 82° 76° (ENE) 23:51:50 437.505
NANOSAT C BR1 30 May 23:45:59 23:48:49 17° 91° (E) 23:51:39 145.865
PHONESAT 2.4 30 May 23:46:00 23:48:23 20° 184° (S) 23:50:46 2401.200-2431.200
UKube-1 30 May 23:47:16 23:51:30 56° 71° (ENE) 23:55:46 .
CUSAT 1 30 May 23:52:52 23:59:33 34° 275° (W) 00:05:13 437.405
RS-15 30 May 23:58:49 00:10:25 46° 27° (NNE) 00:22:10 29.354- 29.394
SO-50 30 May 23:59:31 00:04:07 41° 119° (ESE) 00:08:43 436.795
AISAT 30 May 23:59:41 00:04:09 76° 255° (WSW) 00:08:39 437.250
DANDE 31 May 00:19:42 00:27:33 45° 271° (W) 00:34:35 436.750
DUCHIFAT 1 31 May 00:21:59 00:25:53 37° 98° (E) 00:29:46 145.980
BUGSAT 1 31 May 00:25:01 00:27:59 19° 92° (E) 00:30:56 437.445
GONETS M04 31 May 00:28:27 00:35:10 24° 302° (WNW) 00:41:54
UNISAT 6 31 May 00:30:26 00:34:21 34° 292° (WNW) 00:38:18 437.425
ISS 31 May 00:31:13 00:34:23 45° 7° (N) 00:37:33 145.825
TIGRISAT 31 May 00:36:45 00:40:33 32° 293° (WNW) 00:44:25 435.000
DX 1 31 May 00:41:28 00:45:30 36° 263° (W) 00:49:34 434.975-435.025
CUBEBUG 1 31 May 00:43:06 00:47:01 30° 265° (W) 00:50:57 437.445
YUBILEINY 31 May 00:48:29 00:51:58 13° 45° (NE) 00:55:26 435.215
BEESAT 31 May 00:51:08 00:53:21 13° 55° (NE) 00:55:34 436.000
SPROUT 31 May 00:52:11 00:56:24 55° 259° (W) 01:00:38 437.525
ESTCUBE 1 31 May 00:55:20 00:58:26 18° 269° (W) 01:01:33 437.505/2401.250
VELOX 1 31 May 01:00:49 01:04:15 22° 267° (W) 01:07:42 145.980
TISAT 1 31 May 01:02:13 01:06:21 58° 72° (ENE) 01:10:30 437.305
JAS-2 31 May 01:02:13 01:08:27 29° 89° (E) 01:14:06 435.910
POPSAT HIP 1 31 May 01:04:26 01:08:38 72° 287° (WNW) 01:12:49 437.405
QB50P1 31 May 01:04:28 01:08:40 71° 285° (WNW) 01:12:50 145.935-145.965
QB50P2 31 May 01:08:10 01:12:21 62° 287° (WNW) 01:16:29 145.880/145.840
POLYITAN 1 31 May 01:10:40 01:14:49 61° 288° (WNW) 01:18:57 437.675
ANTELSAT 31 May 01:12:34 01:15:08 16° 300° (WNW) 01:17:43 437.575/2403.000
NANOSAT C BR1 31 May 01:20:47 01:24:52 50° 289° (WNW) 01:28:54 145.865
PHONESAT 2.4 31 May 01:23:18 01:24:27 11° 200° (SSW) 01:25:34 2401.200-2431.200
UKube-1 31 May 01:25:03 01:27:54 17° 269° (W) 01:30:46 .
SO-50 31 May 01:40:04 01:44:40 38° 319° (NW) 01:49:15 436.795
Cosmos 2499 31 May 01:42:20 01:45:27 13° 314° (NW) 01:48:38 435.465 / 435.565
Gurwin Techsat 1B 31 May 01:49:05 01:50:46 11° 85° (E) 01:52:27 435.225
SWISSCUBE 31 May 01:56:35 02:01:10 49° 69° (ENE) 02:05:47 437.505
DUCHIFAT 1 31 May 01:58:03 02:01:25 24° 296° (WNW) 02:04:47 145.980
BUGSAT 1 31 May 01:59:46 02:03:35 41° 290° (WNW) 02:07:22 437.445
ITUPSAT 1 31 May 02:04:49 02:09:26 53° 70° (ENE) 02:14:05 437.325
ISS 31 May 02:07:43 02:10:59 71° 206° (SSW) 02:14:13 145.825
RS-15 31 May 02:11:59 02:24:19 84° 236° (SW) 02:36:39 29.354- 29.394
KKS-1 31 May 02:22:00 02:23:59 13° 56° (ENE) 02:25:58 437.445
BEESAT 31 May 02:25:38 02:30:23 83° 74° (ENE) 02:35:12 436.000
Oscar 19 31 May 02:32:35 02:37:42 59° 101° (ESE) 02:42:45 437.125/150
TISAT 1 31 May 02:39:51 02:42:23 15° 270° (W) 02:44:56 437.305
YUBILEINY 31 May 02:43:00 02:51:28 50° 71° (ENE) 02:59:55 435.215
JAS-2 31 May 02:46:41 02:54:05 65° 291° (WNW) 03:00:40 435.910
STARS 31 May 02:47:27 02:49:09 12° 56° (NE) 02:50:52 437.465
MOZHAYETS 4 31 May 03:03:34 03:07:07 23° 63° (ENE) 03:10:41
Cosmos 2504 31 May 03:13:15 03:20:06 26° 61° (ENE) 03:27:11 435.465 / 435.565
ITAMSAT 1 31 May 03:22:53 03:27:29 30° 95° (E) 03:32:04 435.822/435.867
SO-50 31 May 03:23:50 03:26:29 14° 342° (NNW) 03:29:07 436.795
Gurwin Techsat 1B 31 May 03:26:16 03:31:37 77° 104° (ESE) 03:36:57 435.225
SWISSCUBE 31 May 03:35:32 03:39:14 22° 268° (W) 03:42:58 437.505
Cosmos 2491 31 May 03:43:53 03:52:12 49° 88° (E) 04:00:32 435.465 / 435.565
ITUPSAT 1 31 May 03:44:00 03:47:35 21° 268° (W) 03:51:12 437.325
ISS 31 May 03:45:10 03:46:56 14° 224° (SW) 03:48:42 145.825
KKS-1 31 May 03:55:24 03:59:53 88° 80° (E) 04:04:22 437.445
BEESAT 31 May 04:06:33 04:08:49 13° 272° (W) 04:11:06 436.000
Oscar 19 31 May 04:12:40 04:16:38 23° 300° (WNW) 04:20:35 437.125/150
AO-7 31 May 04:16:50 04:24:31 38° 97° (E) 04:32:08 29.400- 29.500
STARS 31 May 04:20:25 04:24:49 85° 78° (ENE) 04:29:15 437.465
RS-15 31 May 04:25:43 04:35:05 27° 259° (W) 04:44:28 29.354- 29.394
JAS-2 31 May 04:33:08 04:37:38 17° 313° (NW) 04:41:55 435.910
CUBESAT XI-V 31 May 04:39:12 04:43:04 26° 64° (ENE) 04:46:58 437.345
MOZHAYETS 4 31 May 04:39:36 04:44:00 48° 261° (W) 04:48:27
YUBILEINY 31 May 04:40:06 04:48:12 44° 273° (W) 04:56:19 435.215
ITAMSAT 1 31 May 05:02:10 05:07:05 42° 293° (WNW) 05:11:58 435.822/435.867
Cosmos 2504 31 May 05:06:01 05:14:30 84° 263° (W) 05:23:22 435.465 / 435.565
Gurwin Techsat 1B 31 May 05:07:19 05:11:00 19° 303° (WNW) 05:14:40 435.225
SO-50 31 May 05:07:25 05:09:03 11° 7° (N) 05:10:41 436.795
HORYU 2 31 May 05:10:00 05:13:27 22° 93° (E) 05:16:53 437.375
AO-85 31 May 05:25:47 05:30:50 40° 118° (ESE) 05:35:46 145.980
KKS-1 31 May 05:35:46 05:37:06 11° 273° (W) 05:38:26 437.445
Cosmos 2491 31 May 05:40:48 05:49:09 45° 290° (WNW) 05:57:33 435.465 / 435.565
STRAND 1 31 May 05:57:19 06:00:39 18° 57° (ENE) 06:04:02 437.568
STARS 31 May 06:00:20 06:01:48 11° 272° (W) 06:03:15 437.465
NOAA 15 31 May 06:02:55 06:06:18 17° 89° (E) 06:09:39 137.62
AO-7 31 May 06:09:28 06:17:38 59° 298° (WNW) 06:25:47 29.400- 29.500
CUBESAT XI-V 31 May 06:15:48 06:20:15 43° 262° (W) 06:24:46 437.345
Cubesat XI-IV 31 May 06:22:04 06:25:40 18° 89° (E) 06:29:14 437.490
GONETS M04 31 May 06:39:00 06:43:27 15° 48° (NE) 06:47:52
HORYU 2 31 May 06:46:00 06:50:14 45° 291° (WNW) 06:54:27 437.375
SO-50 31 May 06:47:30 06:51:19 23° 31° (NNE) 06:55:02 436.795
NOAA 18 31 May 06:52:22 06:57:25 36° 97° (E) 07:02:27 137.9125
Cosmos 2504 31 May 07:00:57 07:06:44 21° 283° (WNW) 07:12:40 435.465 / 435.565
BRITE-PL 31 May 07:02:51 07:07:44 45° 97° (E) 07:12:12 437.365/2234.400
CUTE-I 31 May 07:06:03 07:11:08 41° 98° (E) 07:16:11 437.470
AO-85 31 May 07:06:09 07:11:22 45° 317° (NW) 07:16:23 145.980
GOMX 1 31 May 07:07:14 07:10:56 23° 91° (E) 07:14:27 467.674
AIST 1 31 May 07:16:58 07:20:24 22° 68° (ENE) 07:23:47
LilacSat-2 31 May 07:21:52 07:25:37 55° 100° (E) 07:29:20 437.200
STRAND 1 31 May 07:34:08 07:39:15 79° 256° (WSW) 07:44:24 437.568
DOVE 4 31 May 07:35:42 07:38:57 20° 91° (E) 07:42:07 437.250
Cosmos 2499 31 May 07:36:00 07:41:58 20° 55° (NE) 07:48:02 435.465 / 435.565
NOAA 15 31 May 07:41:22 07:46:41 76° 288° (WNW) 07:51:57 137.62
PRISM 31 May 07:41:41 07:45:07 25° 64° (ENE) 07:48:34 437.425
Cosmos 2491 31 May 07:46:21 07:48:57 11° 318° (NW) 07:51:34 435.465 / 435.565
Cubesat XI-IV 31 May 08:00:56 08:06:18 74° 288° (WNW) 08:11:39 437.490
CANX-2 31 May 08:02:02 08:04:09 13° 88° (E) 08:06:16 2200.000
AO-7 31 May 08:03:35 08:08:46 19° 321° (NW) 08:14:00 29.400- 29.500
PCSat 31 May 08:12:40 08:15:23 14° 103° (ESE) 08:18:06 145.827
CUTE 1.7 + AOD 2 31 May 08:27:32 08:30:51 21° 92° (E) 08:34:08 437.475
SO-50 31 May 08:27:38 08:32:25 85° 233° (SW) 08:37:00 436.795
NOAA 18 31 May 08:33:04 08:38:06 38° 296° (WNW) 08:43:08 137.9125
GONETS M04 31 May 08:34:05 08:42:39 57° 74° (ENE) 08:51:09
AAUSAT CUBESAT 2 31 May 08:34:17 08:35:08 10° 87° (E) 08:35:57 437.432
COMPASS 1 31 May 08:34:45 08:36:54 14° 88° (E) 08:39:02 437.405
O/OREOS (USA 219) 31 May 08:38:22 08:42:00 24° 103° (ESE) 08:45:37 437.305
BRITE-PL 31 May 08:41:46 08:45:57 26° 298° (WNW) 08:49:52 437.365/2234.400
GOMX 1 31 May 08:44:54 08:49:16 41° 292° (WNW) 08:53:23 467.674
CUTE-I 31 May 08:46:20 08:51:05 33° 296° (WNW) 08:55:50 437.470
AO-85 31 May 08:49:49 08:53:07 16° 339° (NNW) 08:56:19 145.980
AIST 1 31 May 08:54:06 08:58:11 40° 268° (W) 09:02:12
HO-68 31 May 08:56:47 09:03:41 47° 99° (E) 09:10:32 435.675
LilacSat-2 31 May 08:57:23 08:59:31 15° 298° (WNW) 09:01:40 437.200
ANTELSAT 31 May 09:03:17 09:04:58 12° 57° (ENE) 09:06:41 437.575/2403.000
AUBIESAT-1 31 May 09:09:48 09:12:45 29° 103° (ESE) 09:15:42 437.475
CINEMA 3 31 May 09:12:34 09:16:42 61° 101° (E) 09:20:49 145.822/145.860
DOVE 4 31 May 09:12:48 09:16:56 42° 291° (WNW) 09:20:54 437.250
PRISM 31 May 09:16:27 09:20:17 35° 262° (W) 09:24:10 437.425
STRAND 1 31 May 09:17:47 09:19:17 11° 275° (W) 09:20:46 437.568
M-CUBED/EXP-1 PRIME 31 May 09:20:06 09:23:18 48° 107° (ESE) 09:26:29 437.505
NOAA 15 31 May 09:22:54 09:25:36 14° 307° (NW) 09:28:17 137.62
Cosmos 2499 31 May 09:28:03 09:36:43 74° 78° (ENE) 09:45:37 435.465 / 435.565
SEEDS 31 May 09:30:22 09:34:38 68° 102° (ESE) 09:38:52 437.485
CUBEBUG 2 31 May 09:33:58 09:37:48 34° 97° (E) 09:41:40 437.445
CANX-2 31 May 09:36:12 09:40:29 70° 287° (WNW) 09:44:46 2200.000
Cubesat XI-IV 31 May 09:42:51 09:45:30 14° 307° (NW) 09:48:08 437.490
FUNcube-1 31 May 09:46:12 09:49:28 21° 93° (E) 09:52:46 145.935
PCSat 31 May 09:52:30 09:57:55 83° 123° (ESE) 10:03:23 145.827
UWE-3 31 May 09:53:34 09:57:30 38° 98° (E) 10:01:29 435.000/436.395/437.385
UNISAT 6 31 May 09:56:06 10:00:03 36° 68° (ENE) 10:03:59 437.425
TIGRISAT 31 May 10:02:07 10:06:07 39° 69° (ENE) 10:10:06 435.000
CUTE 1.7 + AOD 2 31 May 10:02:49 10:06:53 43° 290° (WNW) 10:10:57 437.475
DELFI C3 31 May 10:02:56 10:05:46 18° 91° (E) 10:08:34 145.870
AAUSAT CUBESAT 2 31 May 10:06:59 10:11:13 85° 286° (WNW) 10:15:25 437.432
COMPASS 1 31 May 10:08:43 10:12:55 67° 287° (WNW) 10:17:07 437.405
SO-50 31 May 10:10:06 10:12:06 13° 252° (WSW) 10:14:04 436.795
O/OREOS (USA 219) 31 May 10:16:48 10:21:09 44° 302° (WNW) 10:25:31 437.305
HUMSAT D 31 May 10:18:51 10:20:51 13° 89° (E) 10:22:52 437.325/437.525
Oscar 11 31 May 10:23:25 10:27:44 60° 101° (E) 10:32:02 145.826/435.025
QB50P1 31 May 10:26:12 10:28:52 17° 61° (ENE) 10:31:34 145.935-145.965
POPSAT HIP 1 31 May 10:26:16 10:28:55 16° 61° (ENE) 10:31:34 437.405
QB50P2 31 May 10:29:44 10:32:40 19° 62° (ENE) 10:35:38 145.880/145.840
GONETS M04 31 May 10:31:26 10:39:09 37° 276° (W) 10:46:51
POLYITAN 1 31 May 10:32:12 10:35:10 19° 62° (ENE) 10:38:08 437.675
AO-85 31 May 10:33:52 10:35:42 12° 3° (N) 10:37:30 145.980
ANTELSAT 31 May 10:36:45 10:41:04 89° 257° (WSW) 10:45:22 437.575/2403.000
NANOSAT C BR1 31 May 10:41:29 10:44:43 22° 63° (ENE) 10:47:57 145.865
AUBIESAT-1 31 May 10:44:40 10:47:10 20° 300° (WNW) 10:49:40 437.475
HO-68 31 May 10:44:42 10:51:22 43° 299° (WNW) 10:58:00 435.675
ZACube-1 31 May 10:46:00 10:50:14 89° 272° (W) 10:54:31 437.345
CINEMA 3 31 May 10:50:57 10:53:25 16° 300° (WNW) 10:55:53 145.822/145.860
BEESAT 2 31 May 10:51:49 10:54:52 21° 115° (ESE) 10:57:56 435.950
M-CUBED/EXP-1 PRIME 31 May 10:55:54 10:57:33 13° 304° (NW) 10:59:12 437.505
SEEDS 31 May 11:07:21 11:09:51 15° 300° (WNW) 11:12:21 437.485
CUBEBUG 2 31 May 11:10:52 11:14:20 26° 294° (WNW) 11:17:51 437.445
CUSAT 1 31 May 11:14:34 11:21:11 47° 90° (E) 11:28:43 437.405
DUCHIFAT 1 31 May 11:17:02 11:21:02 44° 70° (ENE) 11:25:03 145.980
BEESAT 3 31 May 11:17:06 11:20:59 62° 124° (SE) 11:24:55 437.485
JAS-2 31 May 11:17:44 11:23:38 25° 53° (NE) 11:29:36 435.910
BUGSAT 1 31 May 11:18:01 11:21:22 24° 65° (ENE) 11:24:41 437.445
FUNcube-1 31 May 11:21:57 11:25:54 41° 290° (WNW) 11:29:54 145.935
Cosmos 2499 31 May 11:22:02 11:29:08 30° 279° (W) 11:36:24 435.465 / 435.565
UWE-3 31 May 11:30:28 11:33:49 24° 295° (WNW) 11:37:12 435.000/436.395/437.385
UNISAT 6 31 May 11:33:19 11:36:53 25° 266° (W) 11:40:25 437.425
DELFI C3 31 May 11:36:59 11:40:52 45° 289° (WNW) 11:44:44 145.870
PCSat 31 May 11:37:35 11:41:59 24° 324° (NW) 11:46:25 145.827
TIGRISAT 31 May 11:39:32 11:42:58 23° 267° (W) 11:46:23 435.000
AAUSAT CUBESAT 2 31 May 11:44:45 11:46:01 11° 303° (WNW) 11:47:17 437.432
AISAT 31 May 11:47:29 11:50:11 16° 90° (E) 11:52:53 437.250
DANDE 31 May 11:48:12 11:53:59 40° 87° (E) 12:01:04 436.750
HUMSAT D 31 May 11:52:47 11:56:57 68° 285° (WNW) 12:01:08 437.325/437.525
QB50P1 31 May 12:00:04 12:04:14 60° 259° (WSW) 12:08:26 145.935-145.965
POPSAT HIP 1 31 May 12:00:05 12:04:16 61° 258° (WSW) 12:08:28 437.405
Oscar 11 31 May 12:00:34 12:03:26 18° 299° (WNW) 12:06:20 145.826/435.025
QB50P2 31 May 12:04:00 12:08:08 52° 260° (W) 12:12:17 145.880/145.840
POLYITAN 1 31 May 12:06:31 12:10:38 51° 260° (W) 12:14:46 437.675
AO-85 31 May 12:14:23 12:18:07 21° 28° (NNE) 12:21:37 145.980
Oscar 19 31 May 12:15:34 12:19:19 21° 59° (ENE) 12:23:04 437.125/150
NANOSAT C BR1 31 May 12:16:12 12:20:13 43° 261° (W) 12:24:15 145.865
ZACube-1 31 May 12:24:26 12:25:53 12° 302° (WNW) 12:27:21 437.345
DX 1 31 May 12:25:53 12:29:43 29° 96° (E) 12:33:30 434.975-435.025
CUBEBUG 1 31 May 12:27:34 12:31:40 38° 97° (E) 12:35:43 437.445
BEESAT 2 31 May 12:28:35 12:32:27 48° 314° (NW) 12:36:20 435.950
HO-68 31 May 12:35:11 12:37:16 11° 322° (NW) 12:39:22 435.675
SPROUT 31 May 12:35:13 12:38:20 19° 92° (E) 12:41:25 437.525
ESTCUBE 1 31 May 12:42:16 12:46:51 76° 103° (ESE) 12:51:22 437.505/2401.250
50 SAT 31 May 12:43:52 12:47:36 63° 102° (ESE) 12:51:18 437.505
VELOX 1 31 May 12:45:59 12:50:21 55° 101° (E) 12:54:40 145.980
BUGSAT 1 31 May 12:52:40 12:56:34 38° 262° (W) 13:00:28 437.445
DUCHIFAT 1 31 May 12:53:51 12:56:57 20° 268° (W) 13:00:05 145.980
BEESAT 3 31 May 12:55:55 12:59:02 22° 324° (NW) 13:02:10 437.485
CUSAT 1 31 May 12:56:33 13:03:21 46° 292° (WNW) 13:11:03 437.405
JAS-2 31 May 12:59:59 13:07:37 86° 73° (ENE) 13:15:34 435.910
UKube-1 31 May 13:06:37 13:10:56 61° 102° (ESE) 13:15:12 .
ITAMSAT 1 31 May 13:08:54 13:10:49 12° 51° (NE) 13:12:45 435.822/435.867
Gurwin Techsat 1B 31 May 13:12:19 13:16:45 28° 62° (ENE) 13:21:13 435.225
AISAT 31 May 13:22:44 13:27:06 62° 288° (WNW) 13:31:26 437.250
PCSat 31 May 13:26:02 13:27:28 11° 349° (N) 13:28:54 145.827
AO-7 31 May 13:30:32 13:36:15 21° 42° (NE) 13:41:59 29.400- 29.500
DANDE 31 May 13:30:34 13:36:42 47° 292° (WNW) 13:44:18 436.750
AIST 2 31 May 13:36:12 13:40:17 66° 124° (SE) 13:44:24 435.215
Cosmos 2491 31 May 13:49:33 13:57:02 30° 62° (ENE) 14:04:26 435.465 / 435.565
Oscar 19 31 May 13:52:58 13:58:09 69° 257° (WSW) 14:03:21 437.125/150
AO-85 31 May 13:54:34 13:59:24 82° 51° (NE) 14:03:45 145.980
DX 1 31 May 14:02:01 14:05:55 32° 294° (WNW) 14:09:47 434.975-435.025
CUBEBUG 1 31 May 14:04:12 14:07:48 26° 296° (WNW) 14:11:23 437.445
ITUPSAT 1 31 May 14:04:59 14:05:20 10° 85° (E) 14:05:41 437.325
BEESAT 2 31 May 14:09:28 14:11:14 13° 335° (NNW) 14:13:01 435.950
SPROUT 31 May 14:10:27 14:14:32 46° 290° (WNW) 14:18:36 437.525
TISAT 1 31 May 14:18:02 14:22:12 63° 102° (ESE) 14:26:19 437.305
50 SAT 31 May 14:19:04 14:20:52 13° 299° (WNW) 14:22:39 437.505
ESTCUBE 1 31 May 14:20:24 14:23:06 16° 302° (WNW) 14:25:47 437.505/2401.250
BEESAT 31 May 14:23:16 14:26:15 16° 89° (E) 14:29:15 436.000
VELOX 1 31 May 14:23:18 14:26:26 19° 299° (WNW) 14:29:34 145.980
UKube-1 31 May 14:43:43 14:46:32 17° 300° (WNW) 14:49:21 .
ITAMSAT 1 31 May 14:44:13 14:49:20 66° 71° (ENE) 14:54:30 435.822/435.867
CUSAT 1 31 May 14:44:33 14:47:49 13° 316° (NW) 14:51:12 437.405
JAS-2 31 May 14:47:38 14:53:30 24° 274° (W) 14:59:35 435.910
Gurwin Techsat 1B 31 May 14:51:19 14:56:28 50° 261° (W) 15:01:39 435.225
PCSat 31 May 15:11:19 15:13:30 12° 16° (NNE) 15:15:40 145.827
AIST 2 31 May 15:15:52 15:19:09 22° 325° (NW) 15:22:28 435.215
DANDE 31 May 15:18:55 15:22:01 13° 317° (NW) 15:25:18 436.750
AO-7 31 May 15:19:26 15:27:38 69° 65° (ENE) 15:35:54 29.400- 29.500
SWISSCUBE 31 May 15:30:32 15:35:21 72° 103° (ESE) 15:40:08 437.505
AO-85 31 May 15:36:40 15:39:05 14° 252° (WSW) 15:41:24 145.980
ITUPSAT 1 31 May 15:39:08 15:43:59 77° 104° (ESE) 15:48:48 437.325
KKS-1 31 May 15:44:28 15:46:32 13° 88° (E) 15:48:36 437.445
Cosmos 2491 31 May 15:46:02 15:54:47 74° 265° (W) 16:03:25 435.465 / 435.565
YUBILEINY 31 May 15:48:29 15:56:41 49° 88° (E) 16:04:55 435.215
TISAT 1 31 May 15:54:52 15:57:23 16° 300° (WNW) 15:59:54 437.305
BEESAT 31 May 15:59:46 16:04:33 69° 288° (WNW) 16:09:18 436.000
Cosmos 2504 31 May 16:00:20 16:04:07 15° 72° (ENE) 16:08:01 435.465 / 435.565
STARS 31 May 16:08:19 16:09:53 12° 88° (E) 16:11:27 437.465
HORYU 2 31 May 16:11:15 16:15:09 31° 66° (ENE) 16:19:04 437.375
ITAMSAT 1 31 May 16:25:38 16:29:17 19° 270° (W) 16:32:57 435.822/435.867
